Meteo Giornale » Osservazioni meteo Egitto » Cairo

ore: 08:00 - Osservazioni Meteo Cairo
Lat. 30° 8' N Lon. 31° 24' E Alt. 64 metri s.l.m.

nuvoloso Africa/Cairo

18 °C

Nuvoloso

Temp. 24 Ore

16 °C

23 °C

Nord/Nord-Est

29.6 Km/h

Dew point 10 °C

Umidità 59 %

Visibilità  10 Km

Il sole sorge alle ore 05:15

Il sole tramonta alle ore 18:29

Data e Ora Cielo e Fenomeni T °C DP °C Um. % Pres. hPa Vis. km Vento km/h
Oggi h: 08:00 nuvoloso Nuvoloso 18 10 59 1019 10 N/NE 29.6
Oggi h: 07:30 nuvoloso Nuvoloso 18 10 59 1019 10 N/NE 31.5
Oggi h: 07:00 molto_nuvoloso Molto Nuvoloso 17 10 63 1019 10 N 29.6
Oggi h: 06:30 molto_nuvoloso Molto Nuvoloso 17 10 63 1019 10 N 18.5
Oggi h: 06:00 molto_nuvoloso Molto Nuvoloso 16 10 67 1019 10 N 22.2
Oggi h: 05:30 molto_nuvoloso Molto Nuvoloso 16 10 67 1018 10 N 25.9
Oggi h: 05:00 molto_nuvoloso Molto Nuvoloso 16 10 67 1018 10 N 24
Oggi h: 04:30 sereno Sereno 16 10 67 1018 10 N/NE 22.2
Oggi h: 04:00 sereno Sereno 16 10 67 1018 10 N/NE 22.2
Oggi h: 03:30 sereno Sereno 16 10 67 1018 10 N 18.5
Oggi h: 03:00 sereno Sereno 16 10 67 1018 10 N/NE 18.5
Oggi h: 02:30 sereno Sereno 16 10 67 1019 10 N 25.9
Oggi h: 02:00 sereno Sereno 16 10 67 1019 10 N/NE 18.5
Oggi h: 01:30 sereno Sereno 16 10 67 1019 10 N/NE 24
Oggi h: 01:00 sereno Sereno 17 10 63 1019 10 N 22.2
Oggi h: 00:30 sereno Sereno 17 10 63 1019 10 N/NE 24
Oggi h: 00:00 sereno Sereno 17 10 63 1020 10 N/NE 25.9
Ieri h: 23:30 sereno Sereno 17 10 63 1020 10 N/NE 24
Ieri h: 23:00 sereno Sereno 17 10 63 1020 10 N/NE 27.8
Ieri h: 22:30 sereno Sereno 17 10 63 1020 10 N 27.8
Ieri h: 22:00 sereno Sereno 17 10 63 1020 10 N 29.6
Ieri h: 21:30 sereno Sereno 18 10 59 1020 10 N 31.5
Ieri h: 21:00 sereno Sereno 18 9 55 1020 10 N 29.6
Ieri h: 20:30 sereno Sereno 19 9 52 1020 10 N 27.8
Ieri h: 20:00 sereno Sereno 20 10 52 1019 10 N/NE 33.3
Ieri h: 19:00 sereno Sereno 21 9 46 1019 10 N 27.8
Ieri h: 17:30 poco_nuvoloso Poco Nuvoloso 22 8 40 1018 10 N 24
Ieri h: 17:00 poco_nuvoloso Poco Nuvoloso 23 9 40 1018 10 N 29.6
Ieri h: 16:30 poco_nuvoloso Poco Nuvoloso 23 8 38 1018 10 N 27.8
Ieri h: 16:00 poco_nuvoloso Poco Nuvoloso 22 7 37 1018 10 N 25.9
Ieri h: 15:30 poco_nuvoloso Poco Nuvoloso 22 7 37 1018 10 N/NE 27.8
Ieri h: 15:00 poco_nuvoloso Poco Nuvoloso 22 7 37 1018 10 N 25.9
Ieri h: 14:00 nuvoloso Nuvoloso 23 8 38 1019 10 N/NO 25.9
Ieri h: 13:30 nuvoloso Nuvoloso 21 6 37 1019 10 N 29.6
Ieri h: 13:00 nuvoloso Nuvoloso 21 6 37 1019 10 N 31.5
Ieri h: 12:30 nuvoloso Nuvoloso 21 5 35 1019 10 N/NE 29.6
Ieri h: 12:00 nuvoloso Nuvoloso 21 5 35 1020 10 N/NE 27.8
Ieri h: 11:30 nuvoloso Nuvoloso 21 6 37 1020 10 NE 31.5
Ieri h: 11:00 nuvoloso Nuvoloso 21 6 37 1020 10 NE 31.5
Ieri h: 10:30 nuvoloso Nuvoloso 21 5 35 1020 10 N/NE 27.8
Ieri h: 10:00 nuvoloso Nuvoloso 20 5 37 1020 10 N/NE 27.8
Ieri h: 09:30 molto_nuvoloso Molto Nuvoloso 19 6 42 1020 10 N/NE 27.8
Ieri h: 09:00 molto_nuvoloso Molto Nuvoloso 18 5 42 1020 10 N/NE 27.8